Home > Weather > Ansbach > Past weeks

Flag for Germany Past Weather in Ansbach, Bavaria, Germany — Yesterday and Last 2 Weeks

Now
59 °F

Sunny.


Feels Like: 57 °F
Forecast: 56 / 72 °F
Wind: 13 mph from West

Location: Ansbach / Katterbach

Current Time: Jun 27, 2016 at 9:43:08 AM

Latest Report: Jun 27, 2016 at 8:58 AM


Visibility: N/A

Pressure: 30.18 "Hg

Humidity: 68%

Dew Point: 49 °F

Location of AnsbachLocation

Past Weather in Ansbach — Graph

°F

Ansbach Temperature Yesterday

Maximum temperature yesterday: 68 °F (at 6:58 PM)
Minimum temperature yesterday: 55 °F (at 5:58 AM)
Average temperature yesterday: 61 °F

High & Low Weather Summary for the Past Weeks

 TemperatureHumidityPressure
High90 °F (Jun 24, 4:58 PM)100% (Jun 12, 7:02 AM)30.29 "Hg (Jun 12, 7:02 AM)
Low47 °F (Jun 20, 3:58 AM)41% (Jun 23, 3:58 PM)29.58 "Hg (Jun 14, 2:58 PM)
Average62 °F79%29.96 "Hg
* Reported Jun 12 7:02 AM — Jun 27 7:58 AM, Ansbach, Weather by CustomWeather, © 2016

Note: Actual official high and low records may vary slightly from our data, if they occured in-between our weather recording intervals... More about our weather records

Advertising

Ansbach Weather History for the Previous 24 Hours

Scroll right to see more
 ConditionsComfort  
Time TempWeatherWind HumidityBarometerVisibility
7:58 AM
Mon, Jun 27
57 °FSunny.7 mph78%30.18 "HgN/A
6:58 AM55 °FSunny.6 mph88%30.16 "HgN/A
5:58 AM54 °FClear.7 mph94%30.16 "HgN/A
4:58 AM55 °FPassing clouds.2 mph92%30.15 "HgN/A
3:58 AM55 °FPassing clouds.5 mph88%30.14 "HgN/A
2:58 AM57 °FOvercast.3 mph87%30.13 "HgN/A
1:58 AM57 °FOvercast.2 mph93%30.14 "HgN/A
12:58 AM58 °FOvercast.3 mph88%30.15 "HgN/A
11:58 PM
Sun, Jun 26
59 °FOvercast.8 mph82%30.14 "HgN/A
10:58 PM61 °FOvercast.2 mph70%30.11 "HgN/A
9:58 PM63 °FPassing clouds.3 mph64%30.11 "HgN/A
8:58 PM64 °FSunny.3 mph60%30.10 "HgN/A
7:58 PM66 °FScattered clouds.3 mph56%30.09 "HgN/A
6:58 PM68 °FPartly sunny.8 mph53%30.09 "HgN/A
5:58 PM66 °FMostly cloudy.3 mph59%30.10 "HgN/A
4:58 PM67 °FOvercast.2 mph52%30.10 "HgN/A
3:58 PM65 °FOvercast.5 mph60%30.11 "HgN/A
2:58 PM65 °FMore clouds than sun.9 mph53%30.11 "HgN/A
1:58 PM66 °FMore clouds than sun.2 mph52%30.12 "HgN/A
12:58 PM64 °FMostly cloudy.3 mph60%30.12 "HgN/A
11:58 AM63 °FMostly cloudy.6 mph64%30.13 "HgN/A
10:58 AM62 °FBroken clouds.6 mph66%30.13 "HgN/A
9:58 AM61 °FMostly cloudy.1 mph72%30.13 "HgN/A
9:02 AM57 °FScattered clouds.2 mph82%30.12 "HgN/A
Weather by CustomWeather, © 2016

See weather overviewHow to use our weather pages